Theta_e
308 307 306 306 306 304 301 299 298 297 297 297 298 299 299 299 302 311 315 310 313 309 309 313 312 315 317 319 320 321 323 325 325 325 325 323 322 322 322 322 322 322 322 322 321
309 308 307 307 305 304 303 300 298 297 297 297 297 298 299 299 310 311 310 308 309 309 314 313 315 314 317 317 320 321 323 324 324 323 323 322 322 321 321 321 320 321 321 320 320
309 309 308 307 306 305 303 300 298 297 297 297 298 299 299 301 313 314 306 305 306 308 311 312 313 315 316 318 319 320 322 323 322 321 320 319 319 319 318 319 320 320 319 319 319
310 309 309 308 307 307 305 301 298 297 297 297 297 298 300 310 318 313 305 306 306 309 310 312 315 316 317 319 318 317 318 318 318 317 316 317 317 317 317 318 318 318 318 318 319
310 310 310 309 308 308 308 303 299 297 296 296 297 298 309 313 312 309 306 308 310 311 312 314 314 315 317 318 317 317 317 317 316 315 315 315 315 315 315 316 316 316 316 317 317
312 311 311 310 308 307 308 305 299 297 296 296 297 299 312 313 304 308 309 309 310 311 312 312 314 314 313 314 315 315 314 314 314 314 314 314 314 314 316 315 314 314 315 315 316
314 313 312 312 310 307 307 305 299 297 296 297 299 305 311 314 306 308 309 310 310 310 312 311 311 313 314 314 314 313 313 315 315 314 313 313 314 315 315 315 314 314 314 314 314
317 315 313 313 311 307 307 303 298 296 297 300 301 309 317 308 306 308 310 311 310 310 310 310 310 311 312 313 312 313 314 314 314 312 312 312 313 315 314 313 312 312 313 313 314
322 318 314 314 313 308 306 302 296 296 301 301 310 312 317 309 308 310 310 310 309 309 309 308 310 312 312 312 314 315 315 315 314 312 311 310 311 312 312 312 311 312 312 314 315
322 321 315 315 313 309 306 298 300 300 307 308 308 312 313 312 309 308 308 308 309 310 310 310 312 313 314 313 315 315 315 314 312 312 310 310 310 311 311 311 311 311 314 315 315
321 320 316 315 313 309 304 303 310 313 309 316 312 309 310 309 308 308 307 307 309 310 311 311 312 314 312 311 309 308 309 309 310 309 308 308 308 309 310 312 313 313 313 313 313
321 321 318 315 312 306 298 306 308 306 313 312 310 309 310 310 309 308 306 307 308 309 309 309 309 308 307 306 306 306 307 308 308 308 307 308 308 310 311 313 312 312 312 312 312
321 319 316 313 311 303 300 306 304 303 310 316 309 310 309 308 309 308 307 308 308 309 308 309 308 305 305 306 306 307 307 308 306 306 307 308 308 310 312 311 310 310 311 311 313
318 316 313 312 307 304 300 301 300 298 317 317 305 306 308 308 308 307 306 308 307 308 307 308 307 305 305 305 305 306 306 306 305 306 306 307 306 309 311 311 309 309 312 313 312
316 315 313 312 308 307 307 300 299 308 328 313 307 307 308 308 307 305 305 306 307 307 306 308 305 305 305 306 305 305 305 305 305 306 307 307 307 309 311 311 308 312 311 310 309
315 315 311 308 303 302 302 303 306 319 329 311 307 307 307 307 305 305 305 306 307 307 306 306 305 305 305 304 303 304 304 306 306 307 309 309 308 308 309 308 311 311 310 308 307
315 314 311 306 306 302 301 306 315 328 318 313 308 307 307 305 305 304 306 305 305 305 306 304 304 304 304 304 305 305 306 307 308 309 310 309 306 307 306 310 312 310 308 307 306
315 312 306 308 306 302 304 310 323 320 320 312 310 308 308 306 305 305 306 306 305 306 307 306 306 305 305 305 305 304 304 305 305 307 308 307 306 306 306 310 310 309 308 307 306
309 303 302 303 302 302 307 315 321 318 318 310 309 309 308 306 306 306 306 307 307 305 305 306 306 304 304 303 303 306 304 306 305 305 306 306 306 306 306 310 309 308 307 305 305
302 300 298 299 301 303 309 316 318 317 312 309 310 310 310 308 306 306 306 306 306 305 306 307 307 304 304 303 303 303 305 307 308 309 307 306 305 306 310 309 308 307 306 305 305
302 303 297 300 302 304 310 316 317 307 306 308 310 311 311 309 307 307 308 306 306 305 305 305 305 305 303 303 304 305 305 304 306 307 306 306 308 310 309 308 308 307 306 304 304
301 303 297 300 304 305 311 314 311 306 304 305 307 310 308 310 308 308 308 307 305 305 304 305 305 305 304 303 303 304 306 307 309 307 307 307 306 308 309 307 306 306 305 304 303
298 296 297 299 306 306 313 314 307 307 305 306 307 308 308 309 307 307 307 305 304 304 304 304 303 304 303 304 303 303 304 306 306 307 305 307 305 309 308 306 305 305 304 303 302
299 301 299 298 301 307 312 313 306 305 306 305 305 305 306 306 306 306 306 304 303 303 303 304 303 304 304 305 306 304 304 304 305 306 305 305 305 305 307 306 305 303 302 301 301
302 304 304 305 305 308 310 310 307 304 304 304 304 305 306 306 306 306 305 303 302 303 301 303 303 303 302 303 303 304 304 303 303 304 304 304 304 306 306 305 303 302 301 300 299
299 306 305 308 306 307 310 310 309 305 304 304 305 304 304 306 307 305 304 304 303 303 302 303 306 305 304 302 302 302 303 303 303 304 304 304 304 306 303 303 302 301 299 298 298
299 305 307 308 307 308 310 311 310 307 305 305 304 304 305 304 305 305 305 304 304 304 305 306 306 305 304 303 304 305 304 304 304 305 306 305 305 303 302 301 301 299 298 297 297
Wind_Speed
6 5 5 6 7 7 8 9 9 11 12 14 16 17 20 22 19 6 6 4 1 3 5 5 7 8 8 13 9 10 10 14 15 13 4 10 2 4 6 10 11 8 11 15 17
8 7 6 7 8 10 8 9 10 11 12 14 16 17 19 22 13 9 2 3 3 2 6 9 8 8 11 9 6 10 12 17 8 12 10 12 11 12 13 14 15 12 11 11 17
11 9 8 7 9 10 10 9 9 10 11 13 15 17 18 16 10 5 5 4 3 3 5 6 8 9 12 10 11 12 16 17 13 8 11 15 13 11 13 13 13 13 14 14 16
13 11 10 8 8 10 11 10 9 9 11 12 14 16 15 7 5 7 5 3 3 1 4 4 6 9 9 11 9 9 15 10 14 11 11 14 16 15 15 14 13 15 14 14 13
16 14 13 11 9 9 10 11 10 10 11 12 13 13 8 6 6 4 4 3 4 5 7 6 8 9 12 8 9 14 15 11 10 11 12 14 16 17 16 11 11 8 7 8 9
18 17 14 12 13 11 9 12 11 12 13 13 12 10 6 11 1 4 3 5 9 7 6 7 5 6 9 11 11 15 10 13 13 14 12 10 12 10 8 7 5 7 9 10 10
21 20 17 13 14 14 10 9 10 11 13 14 11 6 8 10 2 5 4 5 5 7 7 3 7 8 6 10 5 10 13 13 14 2 8 10 17 12 7 4 10 10 9 11 10
23 20 20 16 14 14 11 11 10 11 11 9 6 6 7 2 4 8 8 8 7 8 8 4 6 9 7 8 11 14 14 13 11 2 5 6 10 9 2 8 13 13 12 11 10
23 22 21 17 16 14 12 11 10 9 6 3 4 7 5 3 8 8 7 7 6 5 4 2 7 8 5 11 12 14 11 7 7 3 4 6 14 11 10 9 11 11 11 12 11
26 22 22 19 16 14 10 10 9 7 4 7 9 6 7 6 7 5 7 6 7 7 7 9 6 8 9 9 10 11 6 7 8 6 10 13 14 12 14 13 11 5 10 8 11
27 26 23 20 17 13 5 6 6 6 13 11 1 5 1 4 6 11 10 9 8 9 11 8 8 12 10 9 9 10 12 13 13 9 9 12 16 14 7 10 9 7 9 11 12
28 29 27 22 17 9 6 6 2 3 8 16 13 11 4 2 8 10 11 10 9 12 5 6 13 6 2 4 8 11 12 13 8 5 11 15 17 14 9 7 10 10 12 14 16
35 31 28 23 19 11 9 7 2 1 7 8 13 15 11 10 11 15 14 12 10 11 10 12 6 3 4 7 9 12 11 10 12 15 19 15 14 14 12 8 7 9 13 15 20
36 34 31 24 11 11 7 11 4 4 5 11 8 9 14 11 10 4 12 8 6 11 8 11 10 8 9 10 5 12 4 7 12 11 11 13 9 10 14 9 7 10 14 21 20
33 34 31 28 8 10 7 17 10 3 4 5 7 8 13 14 10 12 8 7 13 9 6 2 8 9 10 6 1 7 6 12 15 14 16 16 10 4 7 2 8 16 17 18 19
32 31 33 24 9 7 19 14 8 3 8 8 8 11 17 15 6 8 9 2 4 5 7 5 2 3 5 2 6 9 12 17 17 12 9 2 3 7 5 9 9 12 13 15 15
32 34 37 20 7 20 21 4 3 6 6 10 11 15 18 14 11 13 14 14 9 9 11 8 9 4 5 9 9 11 12 7 7 8 8 8 4 8 11 12 12 11 10 10 11
36 38 26 20 16 30 14 2 6 11 22 3 12 18 18 18 14 14 14 14 16 13 5 9 8 13 8 9 5 3 6 6 7 7 11 3 6 4 10 11 15 12 10 9 12
42 22 16 21 30 27 6 4 7 14 9 8 15 20 16 18 10 15 17 15 14 14 10 8 6 6 4 3 4 7 6 7 6 12 7 8 7 7 12 10 11 13 9 11 14
17 11 8 25 33 17 2 8 14 10 7 14 19 18 19 21 15 16 17 14 12 9 4 5 5 10 7 6 5 8 4 4 5 4 8 7 6 6 8 7 9 10 10 10 14
16 3 8 22 18 6 5 11 14 7 8 14 20 11 16 15 19 20 14 6 11 11 10 5 6 9 6 11 9 6 8 6 6 6 5 8 1 6 6 5 10 10 10 12 14
7 3 17 25 5 4 10 13 10 13 12 6 8 11 11 15 17 16 13 6 11 11 8 6 5 8 12 4 6 7 7 6 4 4 6 8 14 6 10 10 9 11 11 13 13
2 4 7 8 4 7 12 17 12 17 17 13 12 12 13 14 10 12 6 6 11 12 8 8 6 7 6 8 6 9 9 8 7 3 10 9 9 12 7 4 8 10 11 13 15
5 5 2 2 2 5 15 18 14 11 15 11 10 10 12 12 3 10 10 8 8 8 9 4 7 12 8 6 5 14 12 12 12 9 11 11 15 11 13 12 11 11 11 14 15
3 5 9 10 13 8 11 13 20 11 8 13 10 12 11 8 9 11 12 10 8 7 6 6 7 11 11 4 4 8 11 13 15 15 14 16 17 11 10 10 8 12 12 15 16
5 5 11 11 22 16 15 15 24 17 15 17 11 12 9 7 4 9 13 12 9 11 12 9 4 3 8 10 10 11 14 16 15 15 14 14 14 6 10 12 13 13 12 15 16
5 8 8 12 21 14 13 17 22 16 12 13 12 8 8 6 7 9 12 14 5 14 13 10 5 7 9 8 10 12 16 12 10 2 4 10 10 12 11 12 11 10 10 13 14
Wind_Direction
260 277 300 321 340 343 349 347 346 347 348 348 347 346 340 335 334 299 288 17 306 254 223 246 239 234 237 248 256 256 259 259 268 282 297 120 246 306 303 279 297 298 284 300 315
257 267 281 310 328 334 340 342 339 340 343 342 342 344 341 334 320 274 38 147 167 203 246 229 233 228 242 250 222 236 252 266 353 333 318 314 299 304 300 291 290 282 287 312 318
248 255 270 296 317 323 328 332 330 332 336 337 339 343 339 333 286 98 147 134 124 141 282 274 279 260 257 239 240 254 250 294 312 321 320 308 295 304 295 289 306 331 326 309 316
240 248 258 276 298 311 320 319 318 323 323 330 333 338 337 315 318 106 158 151 129 235 246 256 252 250 262 252 237 267 262 278 296 310 301 293 309 295 288 295 307 305 320 319 305
242 244 254 267 277 293 309 311 308 310 313 319 326 336 344 255 271 135 172 215 247 242 256 260 268 270 266 282 288 253 270 287 298 291 283 291 285 288 292 310 3 345 319 323 327
242 241 245 259 272 276 296 309 306 308 311 310 316 319 270 271 64 180 206 228 252 238 229 254 289 323 291 284 273 314 296 287 283 281 289 298 289 270 280 49 323 326 331 335 326
243 243 242 242 260 276 286 305 304 304 306 308 307 299 264 256 218 202 217 234 245 255 260 230 284 261 340 262 276 283 278 271 250 282 285 323 267 200 45 284 319 316 328 325 324
242 237 242 240 252 264 286 297 298 302 307 301 284 257 267 177 232 215 220 223 230 257 260 279 250 269 266 294 266 256 259 273 100 340 103 316 297 87 286 307 313 324 319 325 5
246 239 236 237 249 261 276 296 293 292 301 272 246 247 266 159 206 194 203 218 175 206 207 215 232 254 214 246 260 224 271 258 326 146 339 306 312 303 321 305 291 306 330 12 2
243 234 229 230 240 253 277 288 279 271 268 251 256 263 241 212 150 180 181 198 202 195 212 225 231 243 219 239 266 334 308 300 277 312 337 304 286 322 296 303 293 7 21 359 359
239 228 223 225 231 241 273 276 226 199 223 242 354 287 154 188 190 211 172 184 204 210 229 187 264 239 16 25 338 309 294 285 286 349 317 297 296 300 32 47 50 48 21 12 353
240 235 222 210 216 234 216 234 6 350 288 226 242 252 247 247 203 189 188 202 199 224 176 233 241 67 23 327 281 280 281 278 308 238 312 284 296 277 86 89 60 27 14 2 356
241 232 209 201 198 200 221 237 183 312 260 233 225 226 205 210 223 187 207 217 213 219 214 250 69 118 205 229 261 266 250 298 308 309 279 270 290 121 143 132 42 21 11 358 7
232 216 200 192 177 172 213 195 195 119 276 198 202 214 193 209 224 132 220 215 224 237 210 249 137 226 234 246 265 280 70 273 284 290 290 337 282 253 149 146 41 9 19 18 4
215 208 200 184 152 172 165 163 152 92 273 111 140 124 169 192 115 189 185 210 241 211 214 160 186 208 232 255 245 283 312 279 274 277 281 263 245 185 165 131 22 39 24 7 7
208 206 191 182 168 149 150 153 133 134 242 178 154 179 170 197 165 138 170 287 308 199 232 333 51 263 316 177 262 310 282 261 249 250 260 236 227 281 115 51 27 36 25 14 2
214 204 191 174 175 161 152 224 118 201 151 183 182 177 180 179 179 186 187 186 183 191 207 196 212 166 215 234 199 241 272 283 234 208 257 125 239 274 92 71 67 40 29 6 5
209 197 177 176 148 162 160 70 186 224 219 133 178 179 189 173 196 199 197 198 214 239 240 197 196 195 169 250 318 284 293 284 293 296 299 177 255 121 86 85 95 48 24 2 359
189 160 162 178 169 171 151 185 228 228 242 192 179 187 194 185 186 190 209 209 203 214 227 218 191 118 216 186 267 137 246 30 296 258 271 250 221 219 149 81 49 49 352 348 337
143 134 170 172 172 176 167 210 233 242 243 192 198 198 199 190 199 194 187 211 179 219 239 205 202 187 158 218 206 269 35 211 185 263 272 282 271 264 64 10 353 15 1 341 338
134 154 171 162 155 145 194 206 220 184 212 205 221 236 233 196 207 199 186 137 184 187 208 205 241 158 171 210 228 172 226 237 303 273 287 301 19 61 61 14 5 1 343 341 337
137 171 156 143 165 213 202 210 214 191 198 187 221 226 252 233 201 202 210 179 178 170 188 187 232 201 213 92 291 269 235 198 257 228 233 279 278 89 51 28 5 348 337 334 329
86 105 213 153 176 207 198 208 199 191 193 186 205 205 228 200 208 215 209 88 177 188 182 170 213 191 214 209 206 226 206 181 207 273 264 274 285 105 70 288 4 343 342 332 332
126 115 190 178 213 212 197 194 198 197 196 188 184 184 189 192 184 179 157 183 189 195 43 250 257 242 271 2 171 205 221 206 214 245 276 269 276 327 14 354 357 342 336 328 328
177 173 190 180 202 214 201 203 187 168 185 182 172 199 179 169 173 173 156 154 198 130 192 221 246 235 258 238 240 208 212 219 234 247 260 278 296 355 355 354 357 324 335 327 332
140 166 186 176 189 207 193 200 198 183 169 189 195 162 154 198 163 165 173 186 176 175 203 208 241 323 253 246 243 245 239 245 251 260 272 284 294 10 349 335 343 333 338 328 332
178 194 148 167 181 190 197 208 202 181 195 207 180 165 193 206 186 202 184 188 198 181 187 190 220 207 254 193 215 243 234 228 237 266 292 277 322 344 332 337 334 341 335 329 333